Regional Weather Roundup
Issued by NWS

Home | Current Version | Previous Version | Text Only | Print | Product List | Glossary Off
Versions: 1 2 3 4 5 6 7 8 9 10 11 12 13 14 15 16 17 18 19 20 21 22 23 24 25 26 27 28 29 30 31 32 33 34 35 36 37 38 39 40 41 42 43 44 45 46 47 48 49 50

000
ASUS43 KMKX 222000
RWRWI

WISCONSIN REGIONAL WEATHER ROUNDUP
NATIONAL WEATHER SERVICE MILWAUKEE/SULLIVAN WI
300 PM CDT FRI JUL 22 2016

NOTE: "FAIR" INDICATES FEW OR NO CLOUDS BELOW 12,000 FEET WITH NO
SIGNIFICANT WEATHER AND/OR OBSTRUCTIONS TO VISIBILITY.

WIZ001-002-006>008-014>016-023>028-222100-
NORTHWEST WISCONSIN

CITY           SKY/WX    TMP DP  RH WIND       PRES   REMARKS
SUPERIOR ARPT  SUNNY     91  69  48 W10       29.97F HX  95
ASHLAND        SUNNY     92  63  38 W13G21    29.98F HX  93
HAYWARD        SUNNY     89  61  38 VRB3      30.02F HX  89
SIREN          SUNNY     90  57  33 W5        30.02F HX  88
CUMBERLAND     SUNNY     86  55  35 W5        30.02F HX  84
RICE LAKE      SUNNY     88  62  41 CALM      30.03F HX  88
CHETEK         SUNNY     89  64  42 N3        30.02F HX  90
LADYSMITH      SUNNY     88  63  42 W5        30.04F HX  89
EAU CLAIRE     NOT AVBL
MENOMONIE      SUNNY     95  60  30 CALM      30.00F HX  95
NEW RICHMOND   SUNNY     93  50  23 SE6       30.01F HX  90
OSCEOLA        SUNNY     90  59  34 CALM      30.03F HX  89
$$

WIZ003>005-009-010-017-018-222100-
NORTH CENTRAL WISCONSIN

CITY           SKY/WX    TMP DP  RH WIND       PRES   REMARKS
MANITOWISH WTR SUNNY     88  59  37 NW9G18    30.02F HX  87
ARBOR VITAE    SUNNY     89  62  39 W8        30.03F HX  90
WOODRUFF       SUNNY     89  62  39 W8        30.03F HX  90
RHINELANDER    SUNNY     90  61  37 W7        30.03F HX  90
EAGLE RIVER    SUNNY     87  55  33 W10G18    30.02F HX  85
LAND O LAKES   SUNNY     89  48  24 NW12      30.03S HX  86
PHILLIPS       SUNNY     87  63  44 W8        30.02F HX  87
TOMAHAWK       SUNNY     88  59  37 CALM      30.02F HX  87
MEDFORD        SUNNY     87  65  48 W6        30.03F HX  88
MERRILL        SUNNY     89  64  44 NW5       30.01F HX  90
$$

WIZ029-030-035-036-043>047-222100-
CENTRAL WISCONSIN

CITY           SKY/WX    TMP DP  RH WIND       PRES   REMARKS
WAUSAU         SUNNY     90  56  31 W8        29.99F HX  88
MOSINEE        SUNNY     90  61  37 NW5       30.02F HX  89
MARSHFIELD     SUNNY     90  63  40 VRB6      30.02F HX  91
STEVENS POINT  SUNNY     88  65  47 W7        30.02F HX  89
WAUPACA        SUNNY     94  62  34 W6        30.00S HX  94
WAUTOMA        SUNNY     90  73  57 W6        30.00F HX  98
WISC RAPIDS    SUNNY     92  63  38 N7        30.02F HX  93
CAMP DOUGLAS   NOT AVBL
$$

WIZ011>013-019>022-031-037>040-048>050-222100-
NORTHEAST WISCONSIN

CITY           SKY/WX    TMP DP  RH WIND       PRES   REMARKS
ANTIGO         SUNNY     87  64  46 W6        30.03F HX  88
SHAWANO        SUNNY     92  63  38 W6        29.98F HX  93
OCONTO         SUNNY     90  66  45 W6        29.95F HX  92
STURGEON BAY   SUNNY     89  66  46 SW7       29.97F HX  91
GREEN BAY      SUNNY     88  70  55 W7        29.98S HX  93
MANITOWOC      NOT AVBL
APPLETON       MOSUNNY   88  64  45 SW9       29.99S HX  89
CLINTONVILLE   SUNNY     91  55  29 W7        29.98F HX  89
OSHKOSH        MOSUNNY   89  72  56 VRB6      29.99F HX  96
$$

WIZ032>034-041-042-053>061-222100-
SOUTHWEST WISCONSIN

CITY           SKY/WX    TMP DP  RH WIND       PRES   REMARKS
LA CROSSE      SUNNY     92  76  59 NW5       29.98F HX 104
SPARTA         MOSUNNY   90  76  63 W7        30.01F HX 101
VIROQUA        PTSUNNY   87  77  73 SW3       30.04S HX  98
BOSCOBEL       MOSUNNY   87  76  69 W7        30.01F HAZE    HX  97
PRAIRIE DU CHI CLOUDY    85  73  67 CALM      30.01S HX  92
PLATTEVILLE    CLOUDY    84  78  81 W3        30.04S HX  94
$$

WIZ056-057-062-063-064-067-068-222100-
SOUTH CENTRAL WISCONSIN

CITY           SKY/WX    TMP DP  RH WIND       PRES   REMARKS
REEDSBURG      PTSUNNY   87  79  76 SW6       30.00F HX 100
BARABOO/DELLS  MOSUNNY   87  75  66 CALM      30.02F HX  96
LONE ROCK      NOT AVBL
MINERAL POINT  CLOUDY    82  77  83 CALM      30.05S HX  91
MADISON        MOSUNNY   87  75  67 SW3       30.00F HX  96
MIDDLETON      MOSUNNY   89  74  62 CALM      30.02F HX  98
WATERTOWN      MOSUNNY   88  75  66 W5        30.00F HX  98
MONROE         MOSUNNY   86  73  66 SW3       30.03F HX  93
JANESVILLE     PTSUNNY   90  73  58 NW8       30.01F HX  98
$$

WIZ051-052-058>065-066-070>072-222100-
SOUTHEAST WISCONSIN

CITY           SKY/WX    TMP DP  RH WIND       PRES   REMARKS
MILWAUKEE      MOSUNNY   90  71  53 SE9       29.98F HX  96
WAUKESHA       MOSUNNY   88  66  48 NW7       30.02F HX  90
MILWAUKEE/TIMM SUNNY     90  66  45 W5        30.00F HX  92
RACINE         SUNNY     86  69  56 VRB7      30.01F HX  90
BURLINGTON     SUNNY     88  70  55 NW6       30.01F HX  93
KENOSHA        SUNNY     89  72  56 VRB3      30.00F HX  96
FOND DU LAC    SUNNY     90  69  50 W6        30.00F HX  94
SHEBOYGAN      SUNNY     87  74  64 VRB3      29.98F HX  95
WEST BEND      MOSUNNY   90  68  48 NW7       30.00F HX  93
JUNEAU         MOSUNNY   86  74  66 W7        30.03S HX  93
$$

LSZ147-162-222100-
LAKE SUPERIOR

STATION/POSITION TIME  TEMP    WIND        PRES    WAVE
                       AIR SEA DIR/SP/G            HT/PER
                 (UTC) (F)     (DEG/KT/KT) (MB)    (FT/S)
W MID LAKE BUOY  1850   63 57  230/ 10/ 12 1013.3F   1/ 3
DEVILS ISLAND    1900   75     240/ 18/ 20 1014.1F
SAXON HARBOR     1900   88     260/  5/ 12 1014.9S
$$

LMZ867-665-643>646-222100-
LAKE MICHIGAN

STATION/POSITION TIME  TEMP    WIND        PRES    WAVE
                       AIR SEA DIR/SP/G            HT/PER
                 (UTC) (F)     (DEG/KT/KT) (MB)    (FT/S)
CHAMBERS ISLAND  1900   82     170/  8/ 11 1014.2S
S GREEN BAY BUOY 1900   78 75  170/  6/  6   N/A
N MID LAKE BUOY  1750   71 69  230/  4/  4 1013.7S   1/ 5
NORTHPORT PIER   1900   89     260/  6/  9 1013.9F
KEWAUNEE LAKESHO 1900   68     170/  8/  9 1015.1R
SHEBOYGAN LAKESH 1900   73     170/ 15/ 16 1015.6F
PORT WASHINGTON  1940   81     180/  5/  7 1016.3F
ATWATER BUOY     1900   69 56  190/  4/  6 1017.4F
MILWAUKEE LAKESH 1910   73     190/  3/  3   N/A
S MID LAKE BUOY  1750   72 72  190/  8/ 10 1015.7F   1/ 3
KENOSHA   LAKESH 1900   72     140/  2/  6 1015.9R
$$

TC  - TEMPERATURE IN CELSIUS
VSB - VISIBILITY IN STATUTE MILES
WCI - WIND CHILL INDEX
HX  - HEAT INDEX





USA.gov is the U.S. government's official web portal to all federal, state and local government web resources and services.